Effective Sunday, March 17, 2024, the National Weather Service National Data Buoy Center will discontinue its Dial-A-Buoy Interactive Voice Response system. For more information, see Service Change Notice 24-06 (PDF).

Station RLOT2 - 8770971 - Rollover Pass, TX Image indicating link to RSS feed of recent meteorological observations for station RLOT2


Conditions at RLOT2 as of
(11:18 pm CST on 02/26/2024)
0518 GMT on 02/27/2024:
     

Click on the graph icon in the table below to see a time series plot of the last five days of that observation.

5-day plot - Wind Direction Wind Direction (WDIR):SSW ( 200 deg true )
5-day plot - Wind Speed Wind Speed (WSPD): 4.1 kts
5-day plot - Wind Gust Wind Gust (GST): 6.0 kts
5-day plot - Atmospheric Pressure Atmospheric Pressure (PRES):29.91 in
5-day plot - Air Temperature Air Temperature (ATMP): 64.9 °F
5-day plot - Water Temperature Water Temperature (WTMP): 70.5 °F
5-day plot - Wind Speed at 10 Meters Wind Speed at 10 meters (WSPD10M): 3.9 kts
5-day plot - Wind Speed at 20 Meters Wind Speed at 20 meters (WSPD20M): 3.9 kts
5-day plot -  Wind Speed, Wind Gust and Atmospheric Pressure Combined plot of Wind Speed, Gust, and Air Pressure
Previous observations
TIME
(CST)
5-day plot - Wind Direction
WDIR
 
5-day plot - Wind Speed
WSPD
kts
5-day plot - Wind Gust
GST
kts
5-day plot - Wave Height
WVHT
ft
5-day plot - Dominant Wave Period
DPD
sec
5-day plot - Average Wave Period
APD
sec
5-day plot - Mean Wave Direction
MWD
 
5-day plot - Atmospheric Pressure
PRES
in
5-day plot - Pressure Tendency
PTDY
in
5-day plot - Air Temperature
ATMP
°F
5-day plot - Water Temperature
WTMP
°F
5-day plot - Dew Point
DEWP
°F
5-day plot - Salinity
SAL
psu
5-day plot - Visibility
VIS
nmi
5-day plot - Tide (above MLLW)
TIDE
ft
2024-02-26 11:12 pm S 4.1 6.0----29.91- 64.9 70.5----
2024-02-26 11:06 pm S 4.1 5.1----29.90- 64.9 70.5----
2024-02-26 11:00 pm S 4.1 7.0----29.91+0.00 64.9 70.5----
2024-02-26 10:54 pm S 4.1 7.0----29.91- 64.9 70.5----
2024-02-26 10:48 pm S 4.1 7.0----29.91- 64.9 70.5----
2024-02-26 10:42 pm S 5.1 8.9----29.91- 64.9 70.5----
2024-02-26 10:36 pm S 6.0 8.0----29.91- 64.9 70.5----
2024-02-26 10:30 pm S 6.0 9.9----29.90- 64.9 70.5----
2024-02-26 10:24 pm S 7.0 8.9----29.90- 64.9 70.5----
2024-02-26 10:18 pm S 6.0 11.1----29.90- 64.9 70.5----
2024-02-26 10:12 pm S 7.0 11.1----29.90- 64.9 70.5----
2024-02-26 10:06 pm S 7.0 11.1----29.90- 65.1 70.5----
2024-02-26 10:00 pm S 6.0 11.1----29.91+0.00 65.1 70.5----
2024-02-26 09:54 pm S 7.0 11.1----29.90- 65.1 70.5----
2024-02-26 09:48 pm S 6.0 11.1----29.90- 64.9 70.5----
2024-02-26 09:42 pm S 7.0 9.9----29.90- 64.9 70.5----
2024-02-26 09:36 pm S 5.1 8.9----29.90- 64.9 70.5----
2024-02-26 09:30 pm S 6.0 11.1----29.91- 65.1 70.5----
2024-02-26 09:24 pm S 7.0 9.9----29.91- 64.9 70.5----
2024-02-26 09:18 pm S 5.1 9.9----29.91- 64.9 70.5----
2024-02-26 09:12 pm S 6.0 9.9----29.90- 64.8 70.5----
2024-02-26 09:06 pm S 6.0 12.0----29.90- 64.9 70.5----
2024-02-26 09:00 pm S 7.0 12.0----29.90-0.01 64.9 70.5----
2024-02-26 08:54 pm S 8.0 12.0----29.89- 64.8 70.5----
2024-02-26 08:48 pm S 7.0 11.1----29.90- 64.9 70.5----
2024-02-26 08:42 pm S 7.0 13.0----29.90- 65.1 70.3----
2024-02-26 08:36 pm S 8.9 14.0----29.89- 65.1 70.3----
2024-02-26 08:30 pm S 8.0 13.0----29.89- 65.1 70.3----
2024-02-26 08:24 pm S 8.0 13.0----29.89- 65.1 70.3----
2024-02-26 08:18 pm S 7.0 12.0----29.90- 65.1 70.3----
2024-02-26 08:12 pm S 7.0 12.0----29.90- 64.9 70.3----
2024-02-26 08:06 pm S 8.0 12.0----29.90- 64.9 70.3----
2024-02-26 08:00 pm S 8.0 14.0----29.90+0.00- 70.3----
2024-02-26 07:54 pm S 7.0 12.0----29.90-- 70.3----
2024-02-26 07:48 pm S 8.9 12.0----29.90-- 70.5----
2024-02-26 07:42 pm S 7.0 12.0----29.90-- 70.5----
2024-02-26 07:36 pm S 8.9 12.0----29.90-- 70.5----
2024-02-26 07:30 pm S 7.0 11.1----29.91- 64.6 70.5----
2024-02-26 07:24 pm S 8.0 11.1----29.91- 64.6 70.5----
2024-02-26 07:18 pm S 8.0 11.1----29.91- 64.4 70.5----
2024-02-26 07:12 pm S 7.0 11.1----29.91- 64.2 70.5----
2024-02-26 07:06 pm S 7.0 9.9----29.91- 64.2 70.5----
2024-02-26 07:00 pm S 7.0 9.9----29.91+0.00 64.2-----
2024-02-26 06:54 pm S 7.0 9.9----29.91- 64.4-----
2024-02-26 06:48 pm S 8.0 12.0----29.91- 64.4 70.5----
2024-02-26 06:42 pm S 8.0 9.9----29.90- 64.2 70.5----
2024-02-26 06:36 pm S 7.0 9.9----29.91- 64.0 70.5----
2024-02-26 06:30 pm S 8.0 9.9----29.91-------
2024-02-26 06:24 pm S 7.0 9.9----29.90-------
2024-02-26 06:18 pm S 8.0 9.9----29.90- 64.2 70.5----
2024-02-26 06:12 pm S 8.0 11.1----29.90- 64.2 70.5----
2024-02-26 06:06 pm S 6.0 9.9----29.91- 64.2 70.5----
2024-02-26 06:00 pm S 6.0 11.1----29.91-0.01 64.4 70.3----
2024-02-26 05:54 pm S 7.0 9.9----29.91- 64.6 70.3----
2024-02-26 05:48 pm S 7.0 11.1----29.91- 64.8 70.5----
2024-02-26 05:42 pm S 7.0 11.1----29.91- 65.1 70.5----
2024-02-26 05:36 pm S 7.0 9.9----29.91- 65.5 70.5----
2024-02-26 05:30 pm S 7.0 12.0----29.90-------
2024-02-26 05:24 pm S 6.0 9.9----29.90-------
2024-02-26 05:18 pm S 6.0 9.9----29.90- 66.7 70.5----
2024-02-26 05:12 pm S 5.1 13.0----29.90- 67.5 70.5----
2024-02-26 05:06 pmSSW 7.0 9.9----29.91- 67.3 70.3----
2024-02-26 05:00 pmSSW 6.0 11.1----29.90-0.05 66.6 70.3----
2024-02-26 04:54 pmSSW 6.0 9.9----29.90- 66.6 70.3----
2024-02-26 04:48 pmSSW 6.0 11.1----29.90- 66.9 70.3----
2024-02-26 04:42 pmSSW 7.0 11.1----29.90- 66.9 70.3----
2024-02-26 04:36 pmSSW 7.0 9.9----29.90- 66.4 70.3----
2024-02-26 04:30 pmSSW 6.0 9.9----29.91- 66.2 70.3----
2024-02-26 04:24 pmSSW 7.0 11.1----29.90- 66.2 70.3----
2024-02-26 04:18 pm S 8.0 12.0----29.90- 66.4 70.5----
2024-02-26 04:12 pmSSW 6.0 11.1----29.91- 66.7 70.5----
2024-02-26 04:06 pmSSW 8.0 12.0----29.90- 66.7 70.5----
2024-02-26 04:00 pm S 8.0 12.0----29.90-0.08 67.1 70.5----
2024-02-26 03:54 pmSSW 7.0 11.1----29.91- 67.1 70.5----
2024-02-26 03:48 pmSSW 7.0 12.0----29.91- 67.1 70.9----
2024-02-26 03:42 pmSSW 6.0 12.0----29.91- 67.3 70.9----
2024-02-26 03:36 pmSSW 8.0 11.1----29.91- 67.5 70.9----
2024-02-26 03:30 pmSSW 7.0 13.0----29.91- 67.5 70.9----
2024-02-26 03:24 pmSSW 8.9 13.0----29.91- 67.6 70.9----
2024-02-26 03:18 pmSSW 8.0 15.0----29.91- 68.0 70.9----
2024-02-26 03:12 pmSSW 8.0 12.0----29.91- 68.0 70.7----
2024-02-26 03:06 pmSSW 8.0 13.0----29.92- 68.0 70.7----
2024-02-26 03:00 pmSSW 6.0 12.0----29.92-0.09 68.7 70.5----
2024-02-26 02:54 pmSSW 7.0 12.0----29.92- 67.8 70.5----
2024-02-26 02:48 pmSSW 6.0 12.0----29.92-- 70.5----
2024-02-26 02:42 pmSSW 8.0 13.0----29.93-- 70.5----
2024-02-26 02:36 pmSSW 7.0 12.0----29.93-- 70.5----
2024-02-26 02:30 pmSSW 7.0 11.1----29.93- 67.3 70.5----
2024-02-26 02:24 pmSSW 6.0 9.9----29.94- 67.8 70.3----
2024-02-26 02:18 pmSSW 6.0 9.9----29.94- 68.2-----
2024-02-26 02:12 pmSSW 5.1 9.9----29.94- 68.4-----
2024-02-26 02:06 pmSSW 5.1 9.9----29.95- 68.5-----
2024-02-26 02:00 pm SW 6.0 11.1----29.95-0.07 68.4 70.2----
2024-02-26 01:54 pm SW 6.0 11.1----29.95- 68.4 70.2----
2024-02-26 01:48 pm SW 6.0 12.0----29.96- 68.2 70.2----
2024-02-26 01:42 pm SW 6.0 9.9----29.96- 68.0 70.2----
2024-02-26 01:36 pm SW 5.1 11.1----29.96- 68.0 70.2----
2024-02-26 01:30 pm SW 6.0 11.1----29.96- 67.8 70.2----
2024-02-26 01:24 pm SW 8.0 12.0----29.97- 68.0 70.0----
2024-02-26 01:18 pm SW 5.1 11.1----29.98- 68.5 70.0----
2024-02-26 01:12 pmSSW 5.1 12.0----29.98- 68.2 70.0----
2024-02-26 01:06 pmSSW 5.1 12.0----29.98- 67.8 70.0----
2024-02-26 01:00 pmSSW 7.0 11.1----29.98-0.05 67.6 69.8----
2024-02-26 12:54 pmSSW 5.1 12.0----29.99- 67.8 69.8----
2024-02-26 12:48 pmSSW 7.0 12.0----29.99- 67.8 69.8----
2024-02-26 12:42 pm SW 5.1 9.9----30.00- 68.2 69.6----
2024-02-26 12:36 pmSSW 6.0 14.0----29.99- 68.0 69.6----
2024-02-26 12:30 pmSSW 7.0 12.0----29.99- 67.8 69.6----
2024-02-26 12:24 pmSSW 6.0 12.0----30.00- 67.8 69.8----
2024-02-26 12:18 pmSSW 7.0 12.0----30.00- 67.8 69.8----
2024-02-26 12:12 pmSSW 7.0 11.1----30.01- 67.8 69.6----
2024-02-26 12:06 pmSSW 6.0 9.9----30.00- 67.8 69.6----
2024-02-26 12:00 pmSSW 5.1 9.9----30.01-0.02 67.8 69.6----
2024-02-26 11:54 amSSW 7.0 15.0----30.01- 67.6 69.4----
2024-02-26 11:48 amSSW 8.0 12.0----30.01- 67.8 69.6----
2024-02-26 11:42 amSSW 6.0 12.0----30.01- 68.0 69.6----
2024-02-26 11:36 amSSW 8.0 12.0----30.01- 67.8 69.4----
2024-02-26 11:30 amSSW 7.0 12.0----30.01- 67.6 69.3----
2024-02-26 11:24 amSSW 6.0 12.0----30.02- 67.6 69.1----
2024-02-26 11:18 am SW 7.0 12.0----30.02- 67.5 68.9----
2024-02-26 11:12 amSSW 6.0 12.0----30.02- 67.3 68.9----
2024-02-26 11:06 amSSW 8.0 13.0----30.02- 67.1 68.9----
2024-02-26 11:00 amSSW 6.0 11.1----30.02+0.00 66.9 68.9----
2024-02-26 10:54 amSSW 6.0 12.0----30.03- 67.1 68.9----
2024-02-26 10:48 amSSW 6.0 12.0----30.03- 67.3 68.7----
2024-02-26 10:42 amSSW 5.1 11.1----30.03- 67.3 68.7----
2024-02-26 10:36 amSSW 7.0 12.0----30.03- 66.9 68.7----
2024-02-26 10:30 amSSW 6.0 11.1----30.03- 66.6 68.7----
2024-02-26 10:24 amSSW 6.0 11.1----30.03- 66.6 68.7----
2024-02-26 10:18 amSSW 5.1 11.1----30.03- 66.2 68.7----
2024-02-26 10:12 amSSW 7.0 12.0----30.03- 66.4 68.7----
2024-02-26 10:06 amSSW 5.1 8.9----30.03- 66.2 68.7----
2024-02-26 10:00 amSSW 6.0 8.9----30.03+0.02 66.2 68.7----
2024-02-26 09:54 amSSW 5.1 11.1----30.03- 66.0 68.7----
2024-02-26 09:48 amSSW 7.0 11.1----30.03- 66.0 68.7----
2024-02-26 09:42 amSSW 6.0 11.1----30.03- 65.8 68.5----
2024-02-26 09:36 amSSW 6.0 9.9----30.03- 65.7 68.5----
2024-02-26 09:30 amSSW 5.1 8.9----30.03- 65.7 68.5----
2024-02-26 09:24 amSSW 4.1 8.9----30.03- 65.3 68.5----
2024-02-26 09:18 amSSW 7.0 11.1----30.03- 65.1 68.5----
2024-02-26 09:12 amSSW 7.0 11.1----30.03- 64.9 68.5----
2024-02-26 09:06 amSSW 5.1 9.9----30.03- 64.9 68.5----
2024-02-26 09:00 amSSW 7.0 11.1----30.03+0.03 64.9 68.5----
2024-02-26 08:54 amSSW 6.0 8.9----30.02- 64.9 68.5----
2024-02-26 08:48 amSSW 5.1 8.9----30.02- 64.9 68.5----
2024-02-26 08:42 amSSW 7.0 8.9----30.03- 64.9 68.5----
2024-02-26 08:36 amSSW 6.0 8.9----30.03- 64.8 68.5----
2024-02-26 08:30 amSSW 5.1 8.0----30.02- 64.8 68.7----
2024-02-26 08:24 amSSW 5.1 7.0----30.02- 64.6 68.7----
2024-02-26 08:18 amSSW 2.9 8.0----30.03- 64.4 68.7----
2024-02-26 08:12 am SW 4.1 8.0----30.02- 64.4 68.7----
2024-02-26 08:06 amSSW 4.1 7.0----30.02- 64.2 68.7----
2024-02-26 08:00 am SW 2.9 6.0----30.02+0.03 64.2 68.7----
2024-02-26 07:54 am SW 2.9 7.0----30.02- 64.2 68.7----
2024-02-26 07:48 am SW 4.1 7.0----30.02- 64.0 68.5----
2024-02-26 07:42 amSSW 2.9 6.0----30.02- 63.9 68.5----
2024-02-26 07:36 am SW 2.9 6.0----30.01- 63.9 68.5----
2024-02-26 07:30 amSSW 2.9 6.0----30.01- 63.7 68.5----
2024-02-26 07:24 amSSW 4.1 6.0----30.01- 63.7 68.7----
2024-02-26 07:18 amSSW 2.9 6.0----30.01- 63.7 68.7----
2024-02-26 07:12 amSSW 2.9 6.0----30.01- 63.5 68.7----
2024-02-26 07:06 am SW 2.9 6.0----30.01- 63.5 68.7----
2024-02-26 07:00 amSSW 2.9 5.1----30.01+0.03 63.5 68.7----
2024-02-26 06:54 amSSW 4.1 6.0----30.01- 63.3 68.7----
2024-02-26 06:48 amSSW 2.9 6.0----30.01- 63.5 68.7----
2024-02-26 06:42 amSSW 2.9 6.0----30.01- 63.5 68.7----
2024-02-26 06:36 am SW 4.1 6.0----30.01- 63.5 68.7----
2024-02-26 06:30 amSSW 4.1 7.0----30.01- 63.7 68.7----
2024-02-26 06:24 amSSW 4.1 7.0----30.00- 63.7 68.7----
2024-02-26 06:18 amSSW 4.1 7.0----30.00- 63.7 68.7----
2024-02-26 06:12 amSSW 2.9 7.0----30.00- 63.7 68.7----
2024-02-26 06:06 am SW 4.1 8.0----30.00- 63.7 68.7----
2024-02-26 06:00 am SW 4.1 7.0----30.00+0.00 63.5 68.9----
2024-02-26 05:54 am SW 4.1 7.0----30.00- 63.5 68.9----
2024-02-26 05:48 am SW 1.9 5.1----30.00- 63.5 68.9----
2024-02-26 05:42 am SW 2.9 6.0----29.99- 63.5 69.3----
2024-02-26 05:36 am SW 1.9 5.1----29.99- 63.5 69.3----
2024-02-26 05:30 am SW 2.9 7.0----29.99- 63.5 69.3----
2024-02-26 05:24 amSSW 2.9 7.0----29.99- 63.5 69.3----
2024-02-26 05:18 amSSW 2.9 6.0----29.99- 63.3 69.3----
2024-02-26 05:12 am SW 2.9 7.0----29.99- 63.3 69.3----
2024-02-26 05:06 am SW 2.9 6.0----29.99- 63.1 69.3----
2024-02-26 05:00 amSSW 4.1 7.0----29.99-0.03 63.1 69.3----
2024-02-26 04:54 am SW 2.9 7.0----29.99- 63.1 69.3----
2024-02-26 04:48 am SW 1.9 7.0----29.99- 63.0 69.3----
2024-02-26 04:42 amSSW 4.1 6.0----29.98- 63.1 69.4----
2024-02-26 04:36 amSSW 2.9 6.0----29.98- 63.1 69.4----
2024-02-26 04:30 amSSW 4.1 8.0----29.98- 63.1 69.4----
2024-02-26 04:24 amSSW 4.1 7.0----29.98- 63.0 69.4----
2024-02-26 04:18 amSSW 4.1 7.0----29.98- 63.0 69.4----
2024-02-26 04:12 amSSW 2.9 5.1----29.98- 63.0 69.4----
2024-02-26 04:06 amSSW 1.9 6.0----29.99- 63.0 69.4----
2024-02-26 04:00 amSSW 4.1 7.0----29.98-0.04 63.3 69.4----
2024-02-26 03:54 amSSW 5.1 7.0----29.98- 63.1 69.4----
2024-02-26 03:48 amSSW 2.9 5.1----29.99- 63.1 69.4----
2024-02-26 03:42 amSSW 2.9 5.1----30.00- 63.1 69.4----
2024-02-26 03:36 amSSW 1.9 6.0----30.00- 63.0 69.3----
2024-02-26 03:30 amSSW 2.9 5.1----30.00- 63.0 69.3----
2024-02-26 03:24 am SW 1.9 7.0----30.00- 62.8 69.1----
2024-02-26 03:18 am SW 2.9 6.0----30.00- 62.8 69.1----
2024-02-26 03:12 amSSW 4.1 6.0----30.00- 62.8 68.9----
2024-02-26 03:06 amSSW 4.1 7.0----30.00- 62.8 68.9----
2024-02-26 03:00 amSSW 4.1 6.0----30.00-0.02 63.0 68.7----
2024-02-26 02:54 amSSW 4.1 7.0----30.00- 63.0 68.7----
2024-02-26 02:48 amSSW 5.1 8.0----30.00- 63.0 68.5----
2024-02-26 02:42 amSSW 5.1 8.0----30.00- 63.0 68.5----
2024-02-26 02:36 amSSW 6.0 8.0----30.01- 63.0 68.4----
2024-02-26 02:30 amSSW 5.1 8.0----30.01- 63.0 68.4----
2024-02-26 02:24 amSSW 5.1 8.9----30.01- 63.0 68.4----
2024-02-26 02:18 amSSW 6.0 8.0----30.01- 63.0 68.4----
2024-02-26 02:12 amSSW 6.0 8.9----30.01- 63.0 68.4----
2024-02-26 02:06 amSSW 5.1 8.0----30.01- 63.0 68.5----
2024-02-26 02:00 amSSW 5.1 7.0----30.01-0.03 63.0 68.5----
2024-02-26 01:54 amSSW 5.1 7.0----30.01- 63.0 68.5----
2024-02-26 01:48 amSSW 5.1 8.0----30.01- 63.0 68.5----
2024-02-26 01:42 am S 5.1 8.0----30.01- 63.0 68.5----
2024-02-26 01:36 am S 5.1 8.0----30.01- 63.0 68.5----
2024-02-26 01:30 am S 5.1 8.0----30.02- 63.0 68.5----
2024-02-26 01:24 am S 5.1 8.0----30.02- 63.0 68.5----
2024-02-26 01:18 am S 4.1 7.0----30.02- 62.8 68.5----
2024-02-26 01:12 am S 5.1 7.0----30.02- 62.8 68.5----
2024-02-26 01:06 am S 4.1 7.0----30.02- 62.8 68.5----
2024-02-26 01:00 am S 5.1 7.0----30.02-0.02 62.8 68.7----
2024-02-26 12:54 am S 5.1 7.0----30.02- 62.8 68.7----
2024-02-26 12:48 am S 4.1 7.0----30.02- 62.8 68.7----
2024-02-26 12:42 am S 4.1 7.0----30.02- 62.8 68.7----
2024-02-26 12:36 am S 5.1 8.9----30.02- 62.8 68.7----
2024-02-26 12:30 amSSW 5.1 8.9----30.03- 62.8 68.7----
2024-02-26 12:24 amSSW 6.0 8.0----30.02- 62.8 68.7----
2024-02-26 12:18 amSSW 5.1 8.0----30.02- 62.8 68.7----
2024-02-26 12:12 amSSW 5.1 8.9----30.02- 62.8 68.7----
2024-02-26 12:06 am S 5.1 8.0----30.02- 62.8 68.7----
2024-02-26 12:00 amSSW 6.0 8.9----30.02-0.02 62.8 68.7----
2024-02-25 11:54 pm S 5.1 7.0----30.02- 62.8 68.7----